Weather History for Savannah, GA

Change the Weather History Date:

Sunday, April 20, 2014

  Actual Average Record
Temperature  
Mean Temperature 63 °F 66 °F  
Max Temperature 73 °F 79 °F 94 °F (1925)
Min Temperature 53 °F 55 °F 34 °F (1983)
Degree Days  
Heating Degree Days 2 2  
Month to date heating degree days 37 62  
Since 1 July heating degree days 1682 1789  
Cooling Degree Days 0 3  
Month to date cooling degree days 54 51  
Year to date cooling degree days 84 93  
Growing Degree Days 13 (Base 50)    
Moisture  
Dew Point 51 °F    
Average Humidity 69    
Maximum Humidity 89    
Minimum Humidity 49    
Precipitation  
Precipitation T in 0.11 in 1.47 in (1912)
Month to date precipitation 5.30 2.15  
Year to date precipitation 12.06 12.36  
Sea Level Pressure  
Sea Level Pressure 30.09 in    
Wind  
Wind Speed 12 mph (North)    
Max Wind Speed 22 mph    
Max Gust Speed 29 mph    
Visibility 8 miles    
Events Rain    
T = Trace of Precipitation, MM = Missing Value Source: NWS Daily Summary

Daily Weather History Graph

Daily Weather History Graph

Search for Another Location

Airport:

Trip Planner

Search our weather history database for the weather conditions in past years. The results will help you decide how hot, cold, wet, or windy it might be!

Date:

Astronomy

Apr. 20, 2014 Rise Set
Actual Time 6:50 AM EDT 7:57 PM EDT
Civil Twilight 6:24 AM EDT 8:23 PM EDT
Nautical Twilight 5:54 AM EDT 8:53 PM EDT
Astronomical Twilight 5:23 AM EDT 9:24 PM EDT
Moon 12:29 AM EDT (4/20) 11:15 AM EDT (4/20)
Length of Visible Light 13h 58m
Length of Day
13h 07m
Waning Gibbous, 69% of the Moon is Illuminated
Apr 20
Waning Gibbous
Apr 22
Last Quarter
Apr 29
New
May 6
First Quarter
May 14
Full

Hourly Weather History & Observations

Time (EDT) Temp. Dew Point Humidity Pressure Visibility Wind Dir Wind Speed Gust Speed Precip Events Conditions
12:53 AM 54.0 °F 51.1 °F 90% 30.04 in 10.0 mi North 11.5 mph - N/A   Overcast
1:32 AM 53.6 °F 51.8 °F 94% 30.05 in 10.0 mi North 12.7 mph - N/A   Overcast
1:53 AM 54.0 °F 50.0 °F 86% 30.05 in 10.0 mi North 12.7 mph 18.4 mph N/A   Overcast
2:53 AM 54.0 °F 50.0 °F 86% 30.05 in 10.0 mi North 6.9 mph - N/A   Overcast
3:53 AM 54.0 °F 50.0 °F 86% 30.05 in 10.0 mi North 8.1 mph - N/A   Overcast
4:53 AM 54.0 °F 50.0 °F 86% 30.05 in 10.0 mi NNE 15.0 mph - N/A   Overcast
5:48 AM 53.6 °F 50.0 °F 88% 30.06 in 9.0 mi North 10.4 mph - N/A   Overcast
5:53 AM 54.0 °F 50.0 °F 86% 30.06 in 5.0 mi North 10.4 mph - 0.00 in Rain Light Rain
6:53 AM 53.1 °F 48.9 °F 86% 30.08 in 7.0 mi North 10.4 mph - 0.00 in   Overcast
7:44 AM 53.6 °F 50.0 °F 88% 30.10 in 2.0 mi North 10.4 mph - 0.00 in Rain Light Rain
7:53 AM 53.1 °F 50.0 °F 89% 30.10 in 2.0 mi North 11.5 mph - 0.00 in Rain Light Rain
8:44 AM 53.6 °F 50.0 °F 88% 30.10 in 3.0 mi North 11.5 mph 20.7 mph 0.00 in Rain Light Rain
8:53 AM 54.0 °F 50.0 °F 86% 30.10 in 3.0 mi North 15.0 mph 19.6 mph 0.00 in Rain Light Rain
9:53 AM 55.9 °F 52.0 °F 87% 30.11 in 5.0 mi NNE 17.3 mph 27.6 mph 0.00 in Rain Light Rain
10:43 AM 57.2 °F 51.8 °F 82% 30.13 in 10.0 mi NNE 15.0 mph 24.2 mph 0.00 in   Overcast
10:53 AM 59.0 °F 52.0 °F 78% 30.13 in 10.0 mi North 15.0 mph 24.2 mph 0.00 in   Overcast
11:53 AM 59.0 °F 52.0 °F 78% 30.13 in 10.0 mi NNE 21.9 mph 28.8 mph 0.00 in   Overcast
12:53 PM 62.1 °F 52.0 °F 70% 30.12 in 10.0 mi North 12.7 mph 21.9 mph N/A   Mostly Cloudy
12:57 PM 62.6 °F 51.8 °F 68% 30.12 in 10.0 mi NNE 15.0 mph 20.7 mph N/A   Mostly Cloudy
1:46 PM 66.2 °F 53.6 °F 64% 30.11 in 10.0 mi North 18.4 mph - N/A   Mostly Cloudy
1:53 PM 68.0 °F 54.0 °F 61% 30.11 in 10.0 mi NNE 15.0 mph - N/A   Mostly Cloudy
2:53 PM 69.1 °F 52.0 °F 54% 30.10 in 10.0 mi NNW 13.8 mph - N/A   Mostly Cloudy
3:53 PM 71.1 °F 53.1 °F 53% 30.08 in 10.0 mi North 15.0 mph 21.9 mph N/A   Mostly Cloudy
4:53 PM 73.0 °F 53.1 °F 49% 30.08 in 10.0 mi North 11.5 mph - N/A   Scattered Clouds
5:53 PM 70.0 °F 51.1 °F 51% 30.09 in 10.0 mi North 10.4 mph 23.0 mph N/A   Mostly Cloudy
6:53 PM 68.0 °F 51.1 °F 55% 30.09 in 10.0 mi NNE 13.8 mph - N/A   Mostly Cloudy
7:53 PM 64.9 °F 51.1 °F 61% 30.12 in 10.0 mi North 10.4 mph - N/A   Mostly Cloudy
8:53 PM 62.1 °F 50.0 °F 65% 30.12 in 10.0 mi North 6.9 mph - N/A   Scattered Clouds
9:53 PM 60.1 °F 51.1 °F 72% 30.13 in 10.0 mi North 4.6 mph - N/A   Scattered Clouds
10:53 PM 61.0 °F 50.0 °F 67% 30.12 in 10.0 mi North 6.9 mph - N/A   Scattered Clouds
11:53 PM 60.1 °F 48.9 °F 67% 30.11 in 10.0 mi North 5.8 mph - N/A   Scattered Clouds